Theta_e
319 319 318 317 316 317 316 316 317 316 317 314 313 312 309 303 300 299 299 299 299 299 299 299 298 298 299 299 298 297 297 298 298 298 299 302 304 305 313 315 319 320 320 321 321 320 321 322 321 321 321 321 321 321 320 320 320 320 319 319 320 320 319 319 318 318 318 319 320 320 320 320 321 321 322 322 323 324 326 327 327 328 329 329 330
319 318 318 315 315 316 316 316 316 316 315 314 311 310 304 299 299 299 299 298 298 297 297 297 297 297 298 298 297 297 297 297 297 298 298 302 304 303 310 314 317 320 319 319 319 319 321 320 320 320 321 320 320 321 320 320 319 319 318 319 319 319 319 318 317 317 317 318 318 319 319 319 319 320 321 321 322 322 323 324 325 326 326 327 327
318 317 316 315 315 315 315 315 315 315 314 312 310 306 300 299 300 298 298 297 297 297 296 296 296 297 298 297 296 296 296 297 297 297 297 299 303 303 305 310 315 317 320 320 319 319 319 320 320 320 319 319 319 320 320 318 318 317 318 318 318 318 318 316 316 316 317 317 317 317 318 318 319 319 319 320 320 321 321 322 322 322 323 324 325
319 317 316 314 314 314 314 315 314 312 312 308 306 303 300 299 298 297 297 297 296 296 296 295 295 296 296 296 296 295 295 296 296 296 297 299 302 302 303 305 309 312 315 319 320 319 319 319 319 321 320 319 319 319 317 317 317 316 317 317 317 319 317 316 315 316 316 316 316 316 316 317 317 318 318 319 319 319 320 320 320 321 321 321 322
318 317 314 314 312 313 313 313 312 310 309 305 303 300 299 298 299 299 297 296 296 295 297 295 295 295 296 295 295 295 295 295 296 296 297 298 298 301 305 303 302 306 310 312 316 319 319 320 320 321 322 319 319 317 317 316 316 316 316 316 315 316 316 315 315 315 315 315 315 315 316 316 316 316 317 317 318 318 318 318 319 319 320 320 320
318 316 314 313 312 312 312 310 309 307 306 303 301 298 297 298 297 297 299 296 295 295 293 294 294 293 293 294 294 294 294 295 295 296 296 297 296 299 303 303 301 301 302 306 309 314 317 318 318 319 320 320 317 316 316 315 315 315 315 315 315 314 314 314 314 314 314 314 314 314 314 315 315 315 315 316 316 317 317 317 318 318 318 319 319
317 315 313 312 311 310 310 309 308 306 303 301 300 298 298 298 297 296 295 294 295 296 294 294 293 294 294 293 293 293 294 295 295 295 296 295 295 296 299 303 301 302 301 298 300 305 311 314 316 317 318 319 318 316 316 315 315 314 314 314 314 313 313 313 313 313 313 313 313 313 313 314 314 314 315 315 315 316 316 316 316 317 317 318 318
316 314 312 311 310 309 309 308 307 304 302 300 299 298 297 298 296 295 294 293 294 293 294 293 293 294 292 292 293 293 293 293 294 295 295 294 295 296 295 296 299 300 301 296 296 300 307 309 311 313 315 316 317 316 315 315 314 314 313 313 313 313 313 312 312 312 312 311 311 311 312 312 313 312 313 313 313 314 314 314 314 315 315 316 316
315 313 312 309 308 308 308 307 305 303 301 300 298 297 297 297 295 295 294 292 292 291 292 293 294 293 292 293 292 292 292 294 293 293 296 294 294 295 295 292 293 299 295 295 295 296 302 305 306 307 309 313 314 315 315 314 314 313 313 313 313 313 312 311 311 311 311 310 310 311 311 311 311 312 312 312 312 312 312 312 313 313 313 314 314
315 312 310 309 307 306 306 306 304 302 301 299 298 296 296 295 293 294 293 293 292 291 292 293 295 294 293 293 292 293 293 293 293 295 293 294 293 293 293 292 293 293 293 293 293 293 295 300 302 302 304 309 313 315 315 316 315 313 314 314 313 312 311 311 311 310 310 309 309 309 309 309 309 309 310 310 310 311 311 311 311 312 312 313 313
314 310 309 308 305 304 304 304 302 301 300 298 297 295 296 295 293 293 294 294 293 292 293 294 294 294 293 292 292 293 292 292 291 292 292 293 294 295 295 292 293 292 291 291 291 291 291 293 292 292 295 305 309 311 313 314 314 314 314 313 312 312 311 311 310 309 308 308 308 308 308 308 308 309 309 309 309 310 310 310 311 311 311 312 313
312 309 309 307 304 303 302 302 301 300 299 297 296 294 295 294 293 293 293 293 293 293 293 293 292 292 291 292 291 292 292 292 292 291 292 293 292 292 292 292 292 291 292 291 291 291 291 291 292 292 293 299 304 306 308 309 312 315 313 314 312 312 311 310 310 308 307 306 307 307 307 307 307 308 308 308 309 309 309 309 310 310 311 311 312
310 309 308 306 305 302 301 301 300 299 298 297 297 295 295 295 294 294 293 292 292 292 293 293 291 288 289 289 290 291 291 291 291 292 292 292 292 291 291 292 291 291 290 290 291 291 290 290 290 290 290 292 296 303 303 303 306 312 315 313 313 313 312 311 309 307 306 306 306 306 306 306 306 307 307 307 307 307 307 308 309 310 310 310 311
309 309 308 307 304 301 300 299 298 298 298 297 295 295 295 294 294 292 292 292 291 293 293 292 288 287 286 287 288 289 290 289 289 290 291 291 291 291 291 291 291 291 290 291 290 290 290 289 289 290 290 291 293 293 292 293 296 306 313 314 313 313 312 310 308 308 306 306 305 305 305 305 306 306 306 306 306 306 307 308 308 309 310 310 311
307 307 308 307 305 301 300 299 298 297 296 295 295 294 295 294 294 293 291 290 291 293 293 293 287 287 287 286 284 285 288 287 288 290 291 291 290 290 291 291 291 290 290 290 290 289 290 289 289 290 289 290 291 291 291 292 293 298 303 307 311 312 309 309 308 307 307 305 305 306 305 305 305 305 305 305 305 306 307 307 307 307 308 308 309
304 304 305 306 305 303 300 299 298 297 297 296 294 294 294 294 294 292 292 290 290 292 292 291 289 289 284 285 284 284 283 285 285 288 289 290 290 290 291 291 290 290 289 289 289 289 289 290 289 290 289 289 291 291 290 289 292 293 294 298 304 308 309 308 307 307 307 306 305 305 305 305 305 305 304 305 305 305 306 307 307 307 308 308 308
303 303 303 304 303 303 300 298 298 297 296 296 295 295 294 295 294 293 292 292 290 290 291 291 290 292 289 285 284 284 283 284 285 285 287 287 289 289 290 290 289 289 288 288 289 289 289 289 289 289 289 289 290 290 289 288 289 292 291 293 297 302 306 307 306 306 306 306 305 305 305 304 304 304 304 304 304 305 306 306 306 307 306 307 307
302 302 301 301 301 302 300 298 297 296 296 295 295 294 294 294 294 293 292 291 291 290 290 291 291 291 290 289 288 285 284 285 285 281 286 286 288 288 289 289 288 289 288 288 288 288 289 289 289 289 289 289 290 290 288 289 290 289 289 291 298 299 301 304 305 305 305 305 304 305 305 304 303 303 303 304 304 304 305 306 305 305 305 306 306
301 300 300 299 300 300 299 299 297 297 296 295 294 294 295 294 294 293 292 292 290 289 290 290 290 290 292 293 291 289 289 286 283 281 280 283 286 287 287 288 288 288 288 288 288 288 288 289 289 289 289 289 289 289 289 290 292 291 294 296 297 297 298 299 301 303 304 304 303 304 304 303 303 302 302 303 303 304 304 304 304 304 305 305 306
300 300 299 299 299 299 299 298 298 296 296 295 295 293 294 295 294 294 293 292 291 290 289 290 289 289 290 291 291 291 291 290 288 286 282 281 282 285 286 287 287 287 287 288 288 288 287 288 288 288 288 289 288 289 289 288 288 289 291 296 297 297 297 297 297 298 300 301 303 303 303 303 302 302 302 302 302 303 304 304 304 304 304 305 306
299 299 298 298 297 298 297 297 297 296 295 295 294 294 293 293 293 293 292 292 291 291 289 289 289 289 288 288 290 290 289 288 289 289 282 281 281 282 283 285 286 286 287 288 288 288 288 288 288 288 288 288 289 289 289 288 287 288 292 295 296 297 297 296 296 296 296 297 299 300 302 302 302 301 302 302 302 302 303 303 303 303 304 304 305
297 297 297 297 297 296 296 296 296 296 295 294 293 293 293 293 294 293 293 292 291 291 291 290 290 290 289 290 290 288 287 287 287 288 287 285 284 282 283 283 283 285 287 287 288 288 288 288 288 288 288 288 288 288 288 288 287 288 291 294 295 296 297 296 296 296 295 295 296 297 299 300 300 300 301 302 302 302 302 302 302 302 303 303 304
295 295 296 296 296 296 295 295 295 295 295 294 293 293 293 293 293 293 293 292 291 291 291 290 290 290 289 288 290 291 290 288 287 287 288 286 284 283 284 285 285 283 285 288 288 288 288 287 288 287 287 287 288 288 288 288 289 290 292 293 293 294 295 296 296 296 295 295 295 295 296 296 297 298 300 301 301 301 302 302 301 302 302 302 302
294 294 294 295 295 295 294 294 294 294 294 294 294 293 293 292 292 292 292 292 292 291 290 290 289 289 289 289 289 291 291 290 290 290 289 288 289 285 284 284 284 285 285 286 286 287 287 287 287 287 287 287 288 288 288 289 289 291 290 292 293 294 295 296 296 295 295 295 295 295 295 295 295 295 297 299 300 301 301 301 301 301 302 301 301
293 292 292 293 294 294 293 293 294 294 294 293 293 293 292 292 292 291 292 291 292 291 290 290 290 289 289 289 289 289 290 290 289 289 289 289 287 282 285 285 283 284 283 285 284 286 287 287 286 287 287 287 288 288 288 288 288 290 290 291 293 293 294 295 294 294 294 294 294 294 294 294 294 295 296 297 299 300 300 300 300 301 301 300 300
293 293 294 293 293 294 294 293 293 293 292 293 293 292 292 291 291 290 290 291 290 290 290 290 289 290 289 288 288 289 289 290 290 288 287 287 284 285 285 285 282 283 282 284 283 284 284 286 286 287 287 287 287 288 288 287 287 291 290 287 291 292 292 293 294 293 293 293 293 293 293 293 293 294 295 297 298 298 299 300 300 300 299 299 299
292 293 293 294 294 293 293 293 292 292 292 292 293 292 291 291 291 290 290 289 289 289 289 289 289 288 288 288 288 288 289 289 289 290 289 288 288 286 286 285 282 281 281 281 281 284 283 284 286 286 286 287 287 287 288 287 287 290 288 285 286 290 290 292 293 293 293 293 292 292 292 291 292 293 293 295 297 297 298 298 299 299 299 298 297
291 292 292 293 293 293 292 292 291 292 291 291 291 290 289 288 289 288 288 290 289 287 288 288 288 288 287 288 288 287 288 288 289 290 290 289 288 287 287 287 285 281 279 280 280 282 284 283 283 286 286 286 287 287 288 288 286 290 288 283 283 286 289 291 292 293 293 292 292 292 291 291 291 292 293 293 294 294 295 296 296 295 295 294 294
291 292 292 292 292 292 292 292 291 291 291 290 289 287 287 287 288 287 287 286 286 287 287 287 287 287 287 287 288 288 287 287 288 288 288 288 289 288 288 288 288 285 280 279 280 281 282 284 282 284 286 286 286 287 287 286 287 288 285 283 283 283 288 290 291 293 293 292 292 292 291 291 291 292 292 293 293 293 293 293 294 293 294 294 294
289 290 290 289 289 290 290 289 289 287 287 287 286 287 286 287 287 287 287 286 286 286 286 286 287 286 287 287 287 287 287 286 287 286 287 288 287 288 288 288 289 287 284 282 282 282 281 283 283 282 285 286 286 287 287 285 289 287 284 283 283 282 288 290 290 291 292 292 292 292 292 291 291 291 292 292 292 293 293 294 294 293 294 294 295
286 287 286 286 287 287 287 287 288 288 287 287 287 287 286 287 286 287 286 286 286 286 286 286 286 286 286 286 286 286 286 286 286 286 286 286 287 286 287 288 287 289 285 283 282 281 284 282 283 283 284 285 286 286 286 284 287 286 283 282 283 286 288 288 289 290 291 291 292 292 292 291 291 291 291 292 292 293 293 293 293 293 293 293 293
285 285 285 285 286 286 286 286 286 287 287 287 286 286 287 287 287 287 287 285 286 286 286 285 286 286 286 286 286 286 286 285 286 286 285 285 286 286 286 286 285 286 285 284 284 284 283 284 284 283 284 284 285 284 284 283 286 286 282 282 283 287 286 284 288 289 289 290 291 291 291 291 291 291 291 291 292 292 292 292 292 292 292 292 293
285 285 285 285 285 285 285 285 286 286 286 286 286 285 285 286 286 286 286 285 285 285 285 285 285 285 285 286 286 286 285 285 286 286 285 285 285 285 285 285 285 284 284 284 283 282 280 281 283 282 283 284 283 284 283 282 282 283 284 282 283 283 281 281 282 287 288 289 290 290 290 291 291 291 291 291 291 292 291 292 291 291 291 292 293
284 284 284 285 285 285 285 285 284 284 285 286 286 286 286 286 285 287 286 285 285 285 284 284 284 285 285 285 285 285 284 285 286 286 286 285 284 285 284 284 284 284 284 284 283 283 281 281 280 281 282 284 282 283 283 281 281 282 281 281 281 280 280 279 279 281 287 288 289 289 290 290 291 291 292 291 291 291 291 291 291 291 291 291 292
284 284 284 284 284 284 284 284 284 284 284 285 286 285 285 285 285 285 286 285 285 285 284 284 284 284 284 284 284 284 285 284 285 286 286 285 285 285 285 285 285 285 284 284 283 282 281 279 280 281 281 282 282 282 282 282 281 281 280 280 280 280 280 279 279 281 287 288 289 289 290 290 290 291 291 292 291 291 291 291 291 290 291 291 291
283 283 284 284 284 284 284 284 284 284 284 284 285 285 285 284 284 285 285 285 285 285 285 285 284 284 284 284 284 283 283 284 285 284 284 284 284 284 285 285 285 285 284 284 284 285 281 280 280 281 281 281 281 281 282 281 280 279 280 279 279 279 279 280 279 280 285 289 289 289 289 289 290 290 291 291 291 291 291 290 290 290 290 290 290
281 281 282 282 282 282 283 283 284 284 284 284 284 284 284 284 284 284 284 284 284 284 284 285 286 285 284 284 284 283 283 283 284 284 284 283 284 284 285 285 285 285 284 284 284 284 281 281 280 280 281 281 281 280 281 280 279 278 278 278 279 279 278 279 280 281 285 288 288 288 288 289 289 290 291 291 291 291 290 290 290 290 290 289 289
280 280 280 281 281 281 281 281 282 283 284 284 284 284 284 284 284 284 284 284 284 284 284 284 284 284 285 285 285 284 284 284 284 285 284 284 284 284 284 284 284 284 284 284 284 283 282 281 280 279 279 280 279 279 281 281 279 278 277 278 278 278 278 278 279 280 281 282 283 285 287 287 288 289 290 290 291 291 290 290 289 289 289 288 288
279 279 280 279 280 280 280 281 281 282 282 283 284 284 284 284 284 284 285 285 285 285 285 285 284 284 285 285 285 285 285 285 285 285 285 284 285 284 284 284 284 284 284 284 284 283 283 281 279 280 280 280 280 279 280 281 280 279 278 277 276 278 278 279 278 279 280 281 284 286 285 284 286 286 288 289 290 290 290 289 289 289 288 288 288
279 279 279 280 280 279 280 280 280 281 281 282 282 283 283 283 284 284 284 284 284 285 285 285 285 285 285 285 285 285 285 285 285 285 285 285 285 284 285 284 284 284 284 284 283 283 283 282 280 279 279 279 278 277 279 279 278 277 278 278 277 277 277 279 279 278 279 279 279 281 284 285 285 286 287 288 289 289 289 288 288 288 288 288 287
281 280 279 279 279 279 279 279 280 280 281 281 282 282 282 282 283 283 284 284 284 284 284 285 285 285 285 285 285 285 285 286 287 287 287 287 286 285 285 284 283 284 284 284 284 283 283 283 281 279 278 278 278 277 277 277 277 278 279 279 278 279 278 278 278 279 280 279 279 279 279 280 280 280 281 281 283 286 286 287 286 286 286 287 287
279 279 279 279 278 278 278 278 279 280 281 282 284 286 287 285 283 283 283 283 284 284 284 284 284 285 285 285 286 286 286 286 286 287 288 288 288 287 286 285 284 284 284 284 284 284 283 282 282 279 278 278 278 278 278 278 279 279 278 278 277 278 278 277 278 278 280 279 278 277 278 280 279 278 278 279 280 282 281 281 281 282 284 286 286
278 278 278 278 277 277 277 277 278 279 280 281 285 287 288 288 286 284 283 283 283 283 283 283 283 284 284 285 285 285 286 286 286 287 288 288 289 289 289 288 287 285 284 284 284 284 283 283 283 282 279 279 279 279 278 279 279 279 278 278 278 278 276 275 274 277 280 279 278 277 277 279 279 277 278 278 279 279 279 279 283 285 284 285 286
277 278 277 277 277 277 277 277 277 277 279 283 285 286 286 287 287 284 283 283 283 283 283 283 284 284 284 284 285 285 285 285 285 285 286 287 288 288 289 289 289 289 289 286 284 284 284 283 283 283 281 280 280 279 278 278 277 278 278 279 278 278 277 276 277 276 279 281 278 277 276 278 279 277 277 278 278 278 279 281 284 285 286 286 286
277 277 277 277 276 276 276 275 275 277 277 282 284 285 285 286 286 286 283 282 282 282 283 283 283 283 284 284 284 285 285 286 286 285 285 284 286 287 288 288 288 289 290 290 289 286 285 284 283 283 283 282 280 279 279 279 280 278 279 278 278 278 278 278 278 278 278 281 279 277 275 277 278 277 276 278 278 278 280 283 285 285 286 286 286
275 276 276 276 276 275 275 275 275 276 276 280 282 284 284 285 286 286 283 282 282 282 282 282 283 283 283 283 283 283 284 285 285 285 285 284 284 284 284 285 285 286 288 289 289 288 287 285 285 283 284 284 282 281 280 281 279 278 278 278 279 278 278 279 280 279 279 281 278 277 275 276 278 277 276 276 277 277 277 281 285 285 286 286 286
274 274 274 274 274 274 274 274 274 274 275 279 281 282 283 285 286 286 283 282 282 282 282 282 282 283 283 283 283 283 284 284 284 285 284 284 284 284 283 283 284 284 285 285 286 287 286 286 285 285 285 285 284 283 281 281 280 280 281 280 280 280 280 278 276 277 278 280 279 278 274 276 277 276 276 276 276 276 277 281 284 285 286 286 286
274 274 274 274 273 273 273 273 273 273 274 279 280 281 282 283 284 282 282 281 281 281 281 281 281 282 283 283 283 283 284 284 285 287 287 285 284 283 283 283 283 284 284 286 287 288 287 286 286 285 285 285 287 284 282 282 281 281 281 280 279 278 276 275 274 274 275 279 279 278 274 274 277 276 275 276 276 276 277 277 282 285 285 285 285
272 272 272 272 273 272 272 272 271 272 272 276 278 279 280 282 282 280 280 280 280 280 280 280 280 281 282 282 283 283 283 283 286 288 288 288 284 283 282 282 282 283 283 284 287 288 289 289 289 289 289 289 290 291 288 287 283 282 280 278 277 278 276 274 273 273 273 276 277 278 276 273 275 275 274 274 275 275 275 276 277 282 284 284 284
271 271 271 271 271 271 271 271 271 271 271 274 277 278 279 280 280 277 278 278 278 279 279 279 280 280 281 283 283 282 282 283 286 288 288 287 284 284 283 282 281 281 282 283 284 285 287 288 289 289 289 289 289 290 290 289 287 285 280 278 278 278 276 276 274 273 274 275 276 277 275 273 275 274 273 273 274 274 275 275 276 278 282 282 284
269 270 270 270 270 270 270 270 272 271 270 272 276 277 278 278 277 276 276 276 276 277 278 278 279 279 280 282 283 284 283 284 287 288 288 287 284 283 283 282 281 281 282 283 282 282 282 283 284 285 285 286 286 285 286 288 287 286 282 281 280 278 276 277 275 273 271 273 275 277 274 273 273 274 273 271 268 271 275 275 276 276 277 277 279
Wind_Speed
8 7 7 6 6 7 7 7 7 6 7 6 6 7 6 7 6 6 4 4 4 3 3 3 3 4 4 3 2 4 4 4 3 2 2 5 3 5 7 8 9 7 4 3 1 1 1 1 1 2 3 2 3 2 3 5 6 4 2 3 5 6 7 6 6 6 6 6 7 7 8 7 7 7 7 7 8 8 9 10 10 11 12 12 12
7 7 8 6 6 7 8 8 7 7 8 8 6 7 7 6 5 5 5 4 4 3 4 4 3 4 4 3 3 4 4 4 3 1 2 5 4 3 7 8 9 9 5 3 1 1 2 2 2 3 3 4 4 4 4 3 3 4 3 4 4 5 7 6 5 6 6 6 6 7 7 7 7 7 8 8 8 8 8 9 11 11 12 12 12
7 7 7 7 6 7 7 7 7 7 8 8 6 7 7 7 7 6 5 5 6 4 4 3 3 3 4 3 2 4 4 3 3 2 3 4 4 3 4 8 9 10 11 7 5 3 2 0 1 2 3 2 3 4 4 3 3 2 3 3 3 6 6 5 5 5 6 6 6 6 7 7 7 7 7 8 8 8 8 9 9 9 10 11 12
7 7 7 7 7 7 7 7 7 7 8 7 7 7 6 5 6 5 5 5 5 5 4 4 4 3 3 3 2 4 3 3 3 1 2 4 4 4 3 4 8 10 11 13 10 7 4 4 4 6 6 4 5 4 1 1 2 1 1 2 4 8 4 4 4 4 5 5 6 5 6 7 7 7 7 8 8 9 9 9 9 10 9 9 10
8 8 8 7 7 7 7 7 7 7 7 6 7 6 6 6 6 5 6 5 6 5 4 4 5 4 4 3 3 3 3 4 3 3 2 2 4 5 5 4 4 8 10 12 13 11 10 10 11 10 12 6 6 3 3 2 2 0 2 0 2 5 4 3 4 4 4 5 5 5 5 6 7 6 7 7 8 8 8 8 8 9 9 10 10
8 8 8 8 8 7 7 7 7 6 7 7 7 7 7 7 7 7 7 7 7 5 5 5 4 4 4 3 4 3 3 3 3 3 2 1 2 4 5 4 4 5 5 9 12 12 11 10 10 11 10 11 6 4 3 3 2 2 1 2 1 1 2 2 3 3 5 4 4 4 5 5 6 6 6 6 6 8 8 9 9 9 9 9 9
8 9 8 8 8 7 7 7 7 7 7 7 8 7 7 7 7 8 5 6 6 6 5 6 6 6 4 2 3 3 3 3 3 3 2 2 2 3 3 5 5 5 5 5 6 9 11 11 10 11 11 10 7 4 4 3 3 3 2 2 2 1 2 2 2 3 4 4 5 4 4 5 5 6 6 7 7 8 8 8 9 9 9 10 9
7 8 8 8 8 8 8 7 7 8 8 7 8 8 7 6 6 7 7 5 7 6 5 6 5 5 5 4 4 4 3 4 3 2 1 2 2 1 1 3 4 5 5 5 5 5 9 9 10 10 10 9 8 4 2 3 2 2 2 2 2 3 4 2 2 3 4 4 4 4 4 5 4 5 6 6 7 7 7 7 7 7 8 9 9
6 7 8 7 7 7 7 8 7 8 8 8 8 7 7 7 7 6 7 7 7 6 5 6 5 5 4 4 4 3 4 5 4 3 2 2 2 2 3 3 3 5 6 5 5 5 5 8 9 9 10 8 6 6 3 3 3 3 4 5 4 5 4 4 3 3 3 4 3 4 4 4 4 5 5 5 5 6 6 6 6 6 7 7 8
6 6 7 6 6 7 6 8 8 8 8 8 8 7 7 8 8 6 8 7 7 8 6 6 5 5 4 4 4 2 3 5 4 4 3 1 3 3 4 3 2 3 4 5 5 4 3 5 8 8 7 8 7 7 6 6 3 5 5 7 7 5 5 5 4 3 3 2 2 2 2 3 2 2 3 3 4 4 5 5 5 6 6 6 6
5 5 7 6 6 6 7 7 7 8 8 8 7 7 7 7 9 7 6 7 8 7 8 7 6 5 4 4 3 1 2 3 3 4 4 3 3 3 4 4 3 3 3 4 4 4 3 3 3 3 3 5 6 6 6 7 7 4 9 7 8 8 8 7 4 4 2 1 2 1 1 1 2 2 3 3 4 4 4 4 5 5 5 6 6
5 5 5 6 6 6 7 6 7 8 8 8 8 8 10 10 9 9 8 5 7 7 7 8 6 6 4 3 3 2 2 1 1 3 3 4 4 4 4 3 5 3 3 3 4 3 3 3 4 4 2 2 4 6 7 8 8 6 7 11 8 8 9 6 6 4 2 1 1 1 1 0 1 1 2 3 3 4 3 3 4 4 5 5 5
5 5 6 6 6 5 6 6 7 7 8 9 9 9 8 9 8 7 10 7 6 7 8 9 9 4 3 3 1 0 1 0 2 2 3 4 4 4 3 5 4 4 3 3 4 3 3 3 5 4 3 2 1 5 7 7 8 6 6 7 11 10 8 9 7 5 3 2 1 1 1 1 1 1 1 1 1 1 1 2 3 4 4 5 5
6 6 6 7 6 6 6 7 7 7 7 5 6 6 6 6 6 5 5 9 7 9 10 11 3 8 6 3 0 1 2 3 4 4 4 4 5 6 5 6 6 5 4 5 4 4 4 3 4 5 4 3 4 2 3 3 4 8 8 7 8 11 10 8 7 7 7 5 3 2 2 1 2 1 1 1 1 1 1 3 3 3 4 5 5
5 5 6 6 6 7 7 7 7 8 7 7 7 7 8 9 8 9 6 4 3 5 11 11 7 5 4 6 2 2 2 2 4 5 5 5 5 6 6 6 7 6 6 6 5 4 3 4 4 4 4 4 3 3 3 3 4 7 8 11 9 10 7 6 6 6 6 5 5 4 4 3 2 2 1 1 0 1 2 3 3 2 3 4 4
4 4 4 5 6 7 6 7 8 8 9 9 8 9 8 8 9 8 8 7 4 7 7 7 5 11 4 6 4 4 2 8 8 4 6 6 6 6 5 6 6 6 6 6 6 6 5 4 4 4 4 4 4 4 4 3 4 6 7 9 9 6 6 7 6 5 5 5 5 4 5 4 2 1 1 0 0 0 2 2 2 3 4 3 3
3 4 4 5 5 5 5 5 7 7 7 8 8 10 10 10 11 10 11 12 9 6 7 7 7 10 8 5 1 2 6 3 5 2 4 5 5 6 5 6 6 6 6 6 6 7 6 4 4 4 4 4 4 5 5 3 3 2 4 6 6 8 4 5 5 6 5 5 5 5 4 3 1 1 0 0 0 1 2 2 2 3 3 3 3
2 4 4 4 4 4 4 4 5 6 6 6 6 6 8 9 10 10 11 9 11 8 8 8 8 8 5 4 7 7 6 3 5 4 1 3 4 5 6 6 5 6 6 5 6 7 6 6 5 5 5 5 4 6 6 4 3 3 3 3 5 5 4 2 5 5 5 5 4 4 5 3 2 1 1 2 1 1 1 2 2 2 2 2 3
3 4 4 4 4 4 4 4 4 4 5 6 6 7 7 8 7 9 10 9 7 10 12 11 7 7 7 7 1 1 5 9 6 5 1 3 4 5 5 5 6 7 7 6 6 7 6 6 6 6 6 5 5 6 6 5 6 6 6 6 7 6 4 3 2 3 4 5 5 3 3 4 3 2 1 3 1 1 1 1 1 1 1 2 3
2 2 3 4 5 5 4 4 4 4 5 6 7 6 5 5 7 9 8 9 9 10 10 9 14 11 10 8 4 3 2 1 4 10 7 6 6 3 4 6 5 6 7 7 8 8 7 7 7 7 7 6 6 7 6 5 6 6 6 9 9 8 7 6 4 2 2 3 4 4 4 5 4 3 3 1 2 1 0 1 1 1 2 3 3
3 3 3 3 3 4 4 4 5 5 6 5 5 6 7 6 7 8 9 8 9 7 8 10 10 10 9 7 4 6 3 4 2 3 5 4 3 7 6 2 4 6 7 7 7 8 8 8 7 7 7 6 6 6 6 6 6 6 6 11 10 10 10 9 8 6 4 2 3 2 4 4 4 4 3 2 2 2 1 1 0 1 2 2 3
3 3 3 3 3 3 4 4 5 5 4 5 5 6 6 6 7 9 9 11 8 8 10 8 10 9 10 9 9 4 4 3 4 4 2 4 8 8 8 10 9 10 8 9 9 8 8 8 8 8 7 7 6 6 6 7 6 6 7 12 11 11 11 11 11 10 8 6 4 2 3 4 4 3 3 4 3 2 2 1 1 1 2 1 2
3 4 4 3 3 3 4 4 4 4 5 5 6 6 7 7 6 7 9 11 9 9 9 7 7 9 9 8 11 12 13 11 10 7 7 5 3 5 6 10 12 6 8 10 8 8 8 8 9 8 8 8 7 6 7 7 8 8 12 13 12 12 12 12 12 11 10 8 7 5 4 3 3 3 4 4 3 3 3 3 1 1 0 1 1
1 3 4 4 4 4 4 4 4 4 5 6 5 6 6 5 6 6 7 8 9 10 9 10 8 8 11 9 10 9 9 8 8 10 10 8 9 8 8 5 3 5 2 7 5 7 8 9 9 9 9 8 8 7 8 9 8 15 11 13 13 13 12 12 12 11 10 9 8 7 6 5 5 5 4 5 4 4 4 4 2 2 2 1 1
7 3 3 4 4 4 4 4 4 5 5 4 5 5 5 6 6 6 7 7 9 10 10 11 11 10 10 10 9 9 11 8 6 8 7 6 7 6 7 6 8 6 3 6 6 6 8 8 8 8 8 8 8 8 8 8 8 14 12 10 16 13 13 12 12 11 10 9 8 8 7 6 6 5 5 4 4 3 3 4 4 3 2 0 1
7 7 7 4 3 4 5 4 4 4 4 5 5 5 5 6 6 6 6 7 7 9 11 9 9 10 7 8 10 10 10 9 9 7 8 7 7 8 6 4 2 6 1 5 3 5 5 7 8 8 8 8 9 9 8 8 9 15 14 10 12 14 13 13 13 12 12 10 9 8 7 6 6 6 5 6 5 3 4 4 4 3 2 2 2
7 7 8 8 6 4 4 4 4 4 4 4 5 5 5 5 5 6 7 6 7 8 9 9 10 9 8 8 8 9 9 8 9 10 7 10 10 9 9 7 1 2 4 3 3 9 5 4 7 8 10 9 8 9 10 8 9 15 16 10 7 13 14 14 13 13 12 11 10 9 8 8 7 7 7 6 6 5 5 5 4 4 3 1 1
7 8 8 8 8 6 3 3 4 4 4 5 5 4 5 5 6 5 7 5 7 8 8 8 11 10 9 8 7 8 7 8 9 9 9 8 8 7 9 10 11 6 3 5 5 8 5 6 4 9 10 10 9 9 10 10 9 17 15 8 8 8 14 14 14 13 13 12 11 10 10 9 9 8 8 7 6 5 4 4 3 1 1 2 3
7 6 8 8 8 8 6 5 4 4 5 5 5 5 5 5 6 6 7 6 6 7 7 8 8 8 9 10 9 8 7 6 7 8 8 8 8 8 10 12 11 11 7 8 10 9 7 10 8 10 11 10 10 8 10 9 11 15 10 9 9 8 13 16 15 14 14 14 12 12 11 11 10 10 9 9 8 7 6 6 6 5 6 5 4
7 7 7 8 8 8 7 7 6 5 5 5 5 5 5 4 5 5 6 5 7 7 6 7 8 7 8 9 9 9 7 6 7 6 8 9 8 8 8 9 10 14 9 11 11 10 7 8 8 7 9 11 10 9 9 8 13 16 10 10 9 9 15 18 16 15 15 15 14 13 12 12 11 11 10 10 9 8 7 7 6 6 6 6 6
8 8 8 7 7 7 6 6 6 6 5 5 5 5 5 5 5 6 5 5 7 7 7 6 7 7 8 10 9 9 7 8 8 7 7 7 8 8 8 8 9 12 10 9 9 6 9 10 10 6 11 12 10 9 8 7 11 14 11 10 8 13 18 14 17 16 15 15 14 13 13 13 13 12 11 11 10 9 9 8 8 7 6 6 6
5 6 7 7 8 8 7 7 6 6 5 5 5 5 5 5 5 6 6 6 7 8 8 7 6 6 8 10 10 9 7 7 9 8 8 7 7 7 7 7 7 8 8 9 12 10 9 10 10 10 12 12 11 11 9 6 9 16 9 10 9 14 12 8 16 17 15 15 15 14 14 13 13 13 12 12 11 10 10 9 9 9 7 6 7
9 10 8 7 6 6 6 7 7 7 6 6 5 5 4 5 5 5 6 6 7 8 7 8 7 7 8 10 10 10 6 8 10 9 8 8 7 7 7 7 7 6 7 8 9 7 1 1 6 8 9 11 9 10 11 8 8 10 10 9 10 9 9 8 8 14 16 15 15 15 14 14 13 13 13 13 12 11 11 9 8 8 7 7 7
8 9 8 8 8 9 8 7 6 6 6 7 7 5 6 6 6 5 6 7 8 8 7 8 7 7 7 10 10 8 7 10 11 11 10 9 8 9 8 8 8 8 7 7 8 7 8 1 4 4 7 10 10 9 14 12 11 9 11 10 8 8 9 8 8 8 16 15 15 16 15 15 14 13 14 13 13 12 11 10 9 9 8 8 7
6 7 9 9 9 8 8 8 8 8 6 6 5 5 5 6 7 6 6 7 8 8 8 9 8 7 8 9 9 7 6 9 11 11 9 10 9 10 12 9 10 10 8 8 7 8 8 7 5 8 9 10 12 12 12 10 9 10 11 10 10 8 7 8 8 6 14 16 17 16 17 16 15 14 14 14 13 13 11 11 10 9 8 8 8
7 7 6 6 7 8 9 10 9 9 9 8 7 6 6 6 6 7 7 7 7 8 8 9 8 8 9 10 9 7 7 11 11 10 8 8 9 9 10 10 11 12 9 8 9 10 7 9 7 10 9 11 7 5 8 7 9 10 10 7 5 7 6 7 8 7 11 17 17 17 17 17 16 15 15 15 14 13 12 12 11 10 9 9 8
5 7 8 7 6 6 7 8 9 9 9 9 9 9 7 6 7 7 7 7 8 8 9 9 9 9 10 10 9 6 8 11 11 9 8 9 10 10 11 10 10 10 7 8 10 8 7 11 8 6 7 8 6 7 11 12 9 8 6 9 9 9 7 6 5 6 9 17 17 18 17 17 17 17 16 15 15 14 13 13 12 11 10 10 9
5 5 6 7 6 8 7 7 7 8 8 8 8 8 9 8 7 7 7 7 8 8 8 8 8 8 9 10 9 8 10 12 12 9 9 11 10 11 12 11 10 8 9 10 9 9 9 8 10 8 6 10 7 7 12 12 12 10 8 7 5 7 8 7 7 6 6 6 6 9 13 14 16 17 16 16 16 15 14 13 12 12 11 10 10
5 6 6 7 6 6 8 8 8 9 8 7 8 8 8 8 8 8 8 8 8 8 7 8 8 8 9 9 9 9 11 12 12 11 10 10 10 12 12 11 10 9 10 11 10 10 11 9 7 9 11 9 10 11 10 11 10 11 13 11 9 7 8 9 8 6 6 7 7 11 9 8 9 8 13 16 16 16 15 14 13 13 11 11 11
5 5 6 7 7 6 7 7 8 8 8 8 8 8 8 8 8 8 8 8 8 8 8 9 9 9 10 10 10 10 11 11 11 10 10 11 10 11 11 10 10 11 12 10 10 10 11 11 9 10 9 11 8 2 5 9 9 7 8 11 14 13 12 10 11 10 8 7 7 7 10 11 11 13 15 16 17 17 16 14 14 13 12 12 11
7 7 6 6 8 8 7 8 8 7 8 8 7 8 9 9 8 8 9 9 9 9 9 9 9 9 9 9 10 10 11 14 17 15 13 12 10 11 11 9 10 10 11 10 10 10 10 11 10 7 9 10 11 11 12 14 17 19 14 12 11 9 9 9 8 7 8 9 7 7 7 8 8 8 7 8 9 13 12 14 9 13 13 12 12
7 7 7 8 7 8 9 9 8 8 8 7 10 16 15 10 9 9 9 9 9 10 10 10 10 10 10 10 10 14 15 17 17 18 19 20 20 16 11 8 9 10 11 12 12 12 12 12 13 10 11 12 14 15 16 17 13 8 11 13 11 8 7 8 4 6 8 9 9 9 9 7 8 7 7 8 6 7 6 6 6 7 10 14 14
9 8 8 8 8 8 9 10 10 9 9 9 14 15 17 19 13 9 9 10 9 10 10 11 11 11 10 10 10 12 14 15 15 18 18 20 21 22 22 18 14 12 11 13 13 13 13 13 12 11 13 16 15 14 15 13 12 15 15 14 12 10 13 13 13 5 9 12 10 10 9 8 9 10 8 8 7 7 6 7 11 15 15 15 16
10 9 10 10 9 9 9 9 10 11 11 11 19 19 20 21 18 12 9 9 10 10 10 11 11 11 11 11 10 8 9 11 11 11 14 19 21 22 22 21 22 23 21 16 14 13 13 14 14 15 13 16 15 13 12 11 13 12 11 13 14 15 14 13 10 11 10 16 13 11 10 8 9 9 8 8 8 7 7 10 15 16 17 17 17
9 11 13 13 12 11 10 11 12 11 11 14 20 21 22 22 22 18 10 10 11 11 11 11 11 11 10 10 10 10 9 15 13 12 12 11 14 19 20 22 23 25 25 26 23 17 12 14 14 16 17 16 13 13 15 15 13 15 14 13 14 13 13 15 14 9 8 18 12 10 10 10 12 10 10 8 7 6 7 13 17 17 18 19 17
10 11 12 13 13 14 13 12 12 13 13 15 22 22 22 24 24 20 11 12 12 11 12 12 12 12 12 11 11 11 10 10 10 11 11 12 11 11 12 13 14 19 23 26 26 26 21 16 15 18 17 14 14 12 12 13 16 17 15 15 13 13 14 16 14 10 8 14 17 12 7 9 10 10 10 7 7 7 7 11 18 19 19 19 18
10 11 11 13 13 14 14 14 14 15 14 22 23 24 24 24 24 20 12 12 11 11 12 12 13 13 13 12 12 13 12 11 10 12 11 11 10 11 11 12 13 13 14 15 17 17 16 15 16 18 16 13 12 11 13 16 19 17 17 19 19 18 13 3 7 5 7 10 9 9 12 8 9 10 9 8 7 7 6 11 19 19 19 18 18
10 10 12 12 14 15 15 14 14 17 17 27 27 25 25 25 26 15 12 12 12 12 13 13 13 12 12 13 12 13 13 13 14 19 17 12 10 12 14 13 12 12 13 15 19 17 16 15 16 17 14 12 12 10 12 15 14 11 6 3 3 4 6 7 8 4 7 9 11 10 5 7 9 11 8 7 7 7 7 7 16 20 18 18 18
13 13 14 13 13 14 15 16 16 17 17 23 29 29 26 27 20 12 12 12 13 14 14 14 13 13 13 13 13 13 13 13 14 18 19 19 13 14 14 14 13 12 14 13 18 21 22 22 24 24 22 20 20 14 17 22 17 13 10 10 13 12 11 11 8 7 9 9 9 10 7 7 9 9 7 7 8 8 8 8 7 14 18 17 17
15 15 13 14 14 14 15 17 16 16 18 23 31 31 32 31 24 16 14 14 14 14 14 15 13 13 14 21 18 15 14 14 15 19 20 18 14 14 14 14 15 14 15 13 9 10 17 22 23 24 24 23 20 19 18 21 23 18 17 19 15 12 13 14 14 11 6 8 12 10 8 7 8 7 7 4 4 2 6 5 7 7 13 14 17
15 15 15 14 15 14 14 16 20 21 19 23 31 32 34 32 25 15 13 13 15 15 15 16 14 13 13 15 22 20 17 16 20 21 22 18 14 14 14 14 15 16 16 12 9 9 10 11 14 15 15 17 15 13 13 22 25 21 19 17 12 16 17 15 10 8 6 10 10 11 10 6 11 7 10 6 3 3 3 6 6 7 7 6 7
Wind_Direction
159 161 162 170 165 163 167 178 172 164 165 189 169 164 172 160 163 181 157 131 130 152 158 166 147 137 124 133 118 95 87 92 76 47 66 106 85 39 23 13 4 2 2 357 16 213 212 162 240 157 143 113 125 166 120 96 80 66 61 77 70 72 66 56 52 50 46 44 50 50 48 47 49 52 58 60 61 59 59 55 55 52 49 49 46
156 157 163 180 172 166 166 175 172 164 162 187 178 157 164 155 160 158 147 144 149 191 153 178 163 132 126 137 122 129 121 109 130 147 88 105 99 72 39 25 19 18 17 337 284 243 217 194 201 168 172 176 157 183 115 92 79 69 42 78 76 70 62 57 51 52 50 45 46 50 47 45 46 48 53 55 57 56 55 54 51 52 49 50 47
155 159 163 174 177 171 172 170 168 169 165 175 162 155 157 159 161 158 158 153 169 175 148 149 122 97 115 117 134 107 108 114 98 91 102 101 114 102 61 42 36 33 29 38 40 33 30 144 214 264 222 168 195 170 153 174 107 83 76 51 83 77 72 52 49 57 51 44 47 51 49 47 44 46 50 51 53 52 55 53 56 53 54 50 48
155 160 162 173 177 173 172 167 171 163 164 158 157 154 157 158 153 155 157 151 155 158 150 135 131 128 111 109 93 106 107 109 105 80 88 106 118 130 102 73 51 45 38 37 47 46 49 62 44 21 328 215 209 184 158 52 92 106 240 136 109 88 77 61 61 59 54 51 46 50 47 50 46 43 48 53 51 50 53 54 54 52 49 50 49
163 162 161 169 172 170 171 166 163 155 153 148 147 150 149 148 158 149 150 140 134 164 144 140 132 135 124 142 107 101 122 112 113 91 95 125 148 150 130 108 84 56 46 42 36 46 50 47 39 31 17 324 192 173 150 129 123 172 170 206 127 109 102 98 73 62 64 54 54 49 52 47 45 48 50 51 50 49 47 46 49 49 50 48 47
158 162 161 166 172 173 170 165 157 151 146 143 151 156 153 150 162 147 158 143 151 161 142 136 135 135 131 145 119 132 112 107 133 134 144 180 155 133 146 136 115 93 67 47 39 40 49 52 54 45 32 34 58 131 140 142 161 183 151 130 80 60 105 94 86 71 67 67 61 58 58 53 50 46 54 50 50 54 49 44 45 45 50 47 48
160 161 166 165 169 169 170 169 155 151 149 157 155 158 151 159 158 153 152 143 146 161 152 149 142 140 140 135 129 126 109 113 102 133 159 197 114 142 146 159 131 124 108 86 47 37 44 53 55 49 45 48 53 73 122 152 165 197 157 148 157 114 85 84 80 88 74 64 68 62 61 60 51 54 49 48 39 38 36 35 33 33 34 36 40
162 161 167 169 169 169 173 164 159 154 155 158 156 163 158 157 170 151 153 163 151 170 162 147 144 141 143 146 130 125 134 123 131 156 205 124 130 139 120 102 125 145 127 103 89 52 52 56 53 48 46 47 53 65 105 140 169 159 160 152 164 147 110 91 95 91 83 83 74 73 61 61 54 51 48 37 35 30 31 31 30 30 28 29 29
167 166 166 170 168 168 172 168 159 156 155 162 165 166 156 160 174 173 163 164 161 165 164 146 141 138 132 119 138 142 145 148 162 178 153 166 160 141 77 77 88 82 109 120 110 95 72 71 60 49 34 44 53 55 55 157 175 176 170 165 161 141 122 122 117 105 105 83 79 69 61 60 55 49 47 40 37 36 33 30 34 30 30 32 29
171 164 166 170 166 166 170 165 158 156 157 164 175 168 162 161 172 183 171 159 163 162 161 145 136 130 119 118 132 138 153 147 155 142 154 180 151 129 128 116 99 72 95 120 127 123 113 91 82 58 32 37 46 46 38 20 9 207 183 173 166 142 132 131 120 111 103 105 93 81 73 64 53 57 51 48 37 38 30 30 25 29 31 33 39
175 164 162 169 166 167 170 172 162 160 158 166 173 171 167 169 170 182 177 170 162 167 156 142 136 126 124 132 117 100 112 109 122 151 188 178 163 151 123 135 112 94 97 103 128 140 149 159 103 84 49 36 41 41 37 24 360 296 205 181 169 165 153 141 140 127 122 124 114 114 85 62 63 44 47 44 38 28 28 23 27 25 31 30 32
176 169 163 167 171 177 172 167 168 161 164 167 179 178 177 175 179 173 173 165 159 155 139 129 106 109 113 78 75 75 53 84 150 213 187 158 142 121 128 132 117 117 115 111 113 115 132 142 123 125 104 64 63 53 47 31 12 358 234 192 187 169 155 133 142 159 172 210 211 147 144 108 68 63 63 48 37 36 29 29 37 33 40 37 33
177 166 178 174 182 176 160 171 170 172 175 184 182 185 183 178 172 175 168 163 169 154 152 134 127 89 81 110 99 132 133 11 248 224 165 155 147 147 170 135 141 137 161 130 131 146 150 147 146 141 142 152 142 77 56 32 10 3 5 209 201 187 161 162 164 161 157 146 228 177 172 233 152 115 82 86 59 44 356 34 49 41 41 42 37
178 178 184 181 181 179 171 176 173 181 187 182 182 183 175 175 162 172 195 170 175 165 163 126 168 165 149 165 59 255 198 203 246 234 203 175 170 178 179 163 160 165 169 134 154 156 168 168 149 146 162 180 189 81 60 32 353 9 25 5 183 177 190 180 168 161 157 162 175 166 154 213 171 157 139 72 70 54 20 66 48 52 48 46 43
181 186 188 193 188 181 181 175 179 175 173 186 185 187 186 181 176 175 182 204 159 181 171 178 158 140 121 98 205 167 294 276 251 224 199 193 180 181 174 169 170 171 162 152 165 177 190 166 152 153 170 182 155 111 99 78 48 31 26 29 10 198 194 168 177 172 157 170 178 171 174 181 180 171 118 85 337 56 72 74 77 61 59 56 51
181 192 197 201 199 197 187 179 186 181 181 184 187 192 186 184 181 185 170 173 183 199 200 189 143 137 170 199 190 142 247 240 205 223 188 189 183 190 174 176 170 171 160 169 178 180 183 160 163 169 178 176 140 131 124 111 76 55 44 29 30 62 159 168 170 170 168 181 182 186 182 177 171 185 167 104 85 83 99 95 79 74 67 58 61
183 197 200 211 214 210 198 190 188 193 187 192 193 197 193 192 188 182 182 181 191 182 209 204 200 195 147 118 99 223 218 202 138 253 184 194 204 187 189 170 174 180 178 186 178 176 171 165 173 175 185 180 153 144 141 152 109 100 60 50 43 39 70 153 161 169 182 180 185 199 198 167 183 182 224 306 218 147 111 99 85 72 70 67 67
187 194 210 216 226 226 221 198 196 197 198 202 203 199 201 198 197 190 194 199 183 169 190 223 211 218 224 210 150 175 174 187 129 233 204 230 202 208 192 188 177 184 193 192 179 176 171 172 175 186 190 187 161 152 161 166 156 121 117 108 108 95 62 95 172 177 183 185 191 221 203 191 182 206 130 265 252 157 153 112 94 81 78 76 66
207 185 193 210 224 235 236 229 213 203 202 204 209 209 207 207 198 200 201 197 171 186 191 198 217 249 234 234 154 149 152 131 202 96 203 282 225 212 222 202 186 185 198 200 182 173 179 171 182 183 190 192 167 161 168 173 156 139 136 142 138 144 145 95 72 179 184 182 196 225 208 211 205 212 260 267 205 245 187 129 92 87 84 62 58
223 235 204 197 204 220 224 234 237 222 204 213 216 219 216 218 210 210 205 203 199 196 195 189 191 212 216 226 207 156 205 164 159 170 158 164 231 249 245 208 202 208 198 195 191 182 177 182 181 185 189 193 180 170 162 149 149 144 142 152 155 155 160 163 147 131 163 186 194 207 214 207 208 211 249 239 240 248 163 121 124 45 61 57 55
218 227 235 215 209 219 221 223 225 231 215 219 223 222 219 208 208 210 211 214 212 209 192 201 201 206 195 227 189 200 205 213 170 147 139 141 216 190 212 215 224 231 217 204 197 186 182 181 182 184 189 191 187 173 161 157 156 154 161 162 166 168 169 170 171 172 163 176 172 217 216 198 194 208 225 214 252 236 204 113 234 39 59 59 55
216 237 245 236 219 212 222 228 230 231 227 222 226 228 230 224 212 209 210 215 214 212 213 204 207 209 206 196 197 175 208 251 232 196 209 172 172 195 192 178 198 228 203 209 199 192 181 178 180 186 188 188 189 176 168 167 164 160 168 168 170 173 170 174 178 180 179 177 174 192 214 191 188 205 221 225 221 210 185 183 274 65 50 51 54
190 210 218 230 230 221 217 230 235 232 229 235 233 227 230 229 223 217 214 214 216 219 224 218 200 210 211 204 207 195 196 194 199 199 186 180 119 189 186 195 200 206 221 205 194 193 183 179 184 188 186 186 190 179 176 176 168 165 169 173 176 175 176 180 181 182 182 181 187 182 188 179 188 198 220 221 223 197 195 204 205 140 145 60 46
212 186 214 219 215 227 227 231 239 240 238 231 235 231 230 235 232 223 224 223 222 222 224 224 211 205 212 208 213 214 221 215 204 196 191 199 185 182 182 181 260 233 210 187 195 187 189 187 189 185 185 185 190 184 179 175 171 166 169 180 181 182 184 182 183 183 186 186 182 191 190 190 188 197 220 214 215 202 197 204 209 179 194 215 20
339 315 263 217 208 214 224 227 238 240 241 242 244 239 234 233 232 230 222 220 222 224 226 227 221 214 212 214 211 210 217 216 202 205 213 195 188 165 210 174 183 188 208 162 195 197 188 192 182 190 184 185 185 189 183 172 170 172 161 183 185 186 185 183 180 184 189 187 189 195 198 199 199 201 214 219 222 219 205 205 212 203 218 294 315
338 339 327 295 226 210 208 216 222 232 235 238 242 243 237 235 236 236 230 226 222 228 233 234 234 233 218 217 218 214 218 208 210 196 196 183 204 193 172 211 148 182 135 179 186 147 241 204 188 185 190 184 188 188 188 170 168 170 161 170 187 184 183 183 183 185 188 190 195 197 199 201 203 211 220 217 206 206 218 220 211 211 209 218 230
337 330 334 342 318 257 224 224 240 243 247 250 248 245 244 243 242 245 244 231 228 226 231 232 238 240 237 227 224 223 219 210 209 217 193 200 198 188 169 167 155 120 186 214 213 211 189 194 181 190 193 188 188 191 188 179 171 168 167 169 178 185 186 189 190 188 188 192 195 199 199 200 211 214 216 227 209 199 217 211 215 210 209 239 265
336 338 333 333 330 321 293 264 258 261 257 249 249 246 245 241 248 251 254 247 239 233 233 228 237 238 242 245 239 237 223 214 215 217 214 206 199 189 183 181 179 217 208 210 217 238 188 175 210 202 190 192 192 188 191 173 171 173 169 171 176 187 191 192 192 188 188 192 197 200 201 201 209 218 216 212 215 212 213 219 238 281 221 233 230
333 332 328 327 328 326 324 312 298 276 268 260 252 247 242 238 238 244 251 253 248 243 237 232 236 233 239 239 240 243 237 235 229 222 217 213 208 197 189 191 191 202 187 207 220 211 226 190 184 210 191 189 187 187 185 184 175 173 174 174 178 182 193 192 192 189 190 193 198 201 201 203 210 215 217 215 212 208 205 207 205 206 216 222 225
335 329 328 327 322 319 315 309 299 291 277 272 266 257 250 245 238 239 240 245 253 257 247 239 239 232 240 243 241 247 243 242 240 234 224 220 213 207 203 203 188 206 194 197 229 194 206 206 194 178 189 190 185 186 189 183 175 172 176 179 176 181 191 190 190 191 192 195 198 201 200 203 210 215 216 219 218 215 213 215 210 211 217 220 225
339 336 333 328 321 314 314 307 302 291 281 272 264 262 250 250 247 247 252 246 246 249 246 237 240 228 237 242 242 244 237 244 248 245 244 234 227 219 217 199 205 211 193 192 233 230 177 193 206 189 180 188 182 180 184 176 175 170 175 183 181 180 185 187 187 191 193 195 198 201 203 204 209 214 217 218 220 217 218 215 216 217 219 223 227
340 340 336 335 330 327 320 312 306 300 291 278 267 256 255 246 244 248 249 244 249 249 251 240 237 231 238 242 240 239 234 235 245 241 244 244 233 231 226 214 212 211 185 188 216 231 197 195 189 186 177 176 175 175 186 166 178 173 173 183 184 175 179 180 187 191 194 194 198 201 203 205 209 214 218 219 220 222 219 221 220 221 223 224 230
346 343 341 337 332 324 318 317 316 313 307 297 286 273 264 259 252 242 247 243 247 251 246 252 244 234 236 241 243 240 229 231 239 238 237 238 241 240 235 229 229 210 188 199 211 229 280 153 163 176 177 160 174 180 175 173 174 182 177 180 178 175 174 180 185 196 198 196 198 201 203 205 208 213 217 220 221 221 223 224 222 223 225 229 240
341 333 330 329 332 334 334 326 318 311 310 308 303 299 283 273 263 248 246 244 248 249 241 248 246 244 241 241 241 237 226 235 238 237 231 231 226 233 237 226 232 227 207 197 220 198 210 162 123 125 162 176 174 182 179 177 186 178 179 177 179 177 181 180 185 198 201 195 197 200 201 203 207 212 215 218 219 221 224 224 222 222 225 232 240
318 322 324 326 327 330 328 327 326 324 316 308 300 290 277 264 260 257 248 244 244 246 246 245 245 243 247 246 246 232 224 235 239 238 234 233 228 229 232 224 232 230 218 211 205 217 198 207 175 162 175 181 184 185 188 187 180 181 177 181 178 183 186 185 186 185 195 192 196 200 200 201 204 209 214 215 216 221 223 223 222 222 226 233 237
320 313 312 312 321 326 327 324 324 320 319 316 313 305 294 283 272 265 259 253 249 248 247 248 245 242 244 250 247 234 230 238 238 233 231 230 230 232 236 230 229 230 217 215 217 219 189 183 202 181 183 174 197 173 177 154 166 183 193 175 159 177 186 190 188 185 192 193 197 200 200 200 202 206 211 214 216 219 221 220 221 223 226 229 235
310 319 320 321 319 318 315 313 312 312 310 312 312 309 302 295 286 278 270 262 256 251 248 247 245 243 245 245 248 232 231 241 243 236 227 227 229 231 234 231 232 231 225 217 223 211 184 198 186 199 178 190 177 169 172 165 169 178 183 190 188 182 186 196 190 192 190 197 198 200 200 200 202 205 209 212 214 217 220 220 222 225 228 232 235
318 316 308 311 313 311 306 299 296 296 296 296 295 293 294 293 288 280 273 267 264 262 259 254 250 246 249 248 245 237 239 242 247 240 231 231 229 229 231 232 228 225 225 227 221 218 213 205 174 169 192 179 172 186 185 175 169 172 184 193 181 187 179 191 203 195 194 193 189 198 202 204 204 206 209 212 212 216 217 220 224 227 230 233 235
309 313 311 305 304 301 299 301 300 294 289 285 282 278 277 276 275 274 270 268 268 268 263 259 256 255 253 253 248 240 242 244 248 244 237 236 230 232 228 226 218 218 224 227 221 218 221 205 194 189 181 196 183 181 187 184 183 182 178 172 195 199 194 191 194 204 196 200 202 194 191 190 198 204 213 214 215 216 216 219 225 229 232 232 230
298 297 298 297 295 297 291 291 288 287 286 286 280 276 272 271 271 270 270 270 272 270 267 262 260 258 257 256 253 247 244 247 246 246 237 241 237 239 233 225 218 217 221 224 222 221 222 219 194 190 190 179 192 155 138 162 177 199 196 184 191 190 195 196 200 187 192 184 191 194 199 200 208 212 215 219 218 216 215 218 224 230 233 231 227
292 290 288 288 294 296 294 291 290 284 281 278 276 279 281 278 271 271 273 272 271 273 272 268 263 261 261 258 257 253 250 250 247 245 241 237 238 243 237 222 217 218 221 218 215 217 224 221 216 183 180 189 192 170 174 187 192 195 180 185 208 197 185 187 204 194 183 182 188 185 198 191 191 201 199 205 213 214 215 215 218 227 228 223 220
279 282 288 288 285 289 294 292 289 290 283 276 274 274 273 272 276 274 272 270 269 270 271 272 268 261 259 261 258 256 254 253 251 249 247 245 242 239 239 222 219 221 219 219 216 215 216 218 221 192 191 201 194 192 190 197 190 159 174 189 193 183 169 205 206 208 183 174 177 193 204 188 179 190 193 203 203 197 197 212 209 196 213 218 214
293 288 281 281 284 285 286 288 288 286 281 279 273 270 273 276 275 273 272 273 267 264 265 266 269 267 262 258 257 257 256 256 255 252 249 247 246 246 245 236 226 221 221 221 221 217 215 217 219 208 207 209 204 196 198 186 183 186 186 183 185 172 187 182 202 188 192 176 185 192 201 190 174 190 200 207 199 196 193 201 208 213 214 216 211
298 297 290 283 281 281 281 281 281 280 280 270 274 278 280 282 279 272 270 270 270 266 260 260 260 263 262 260 255 252 249 248 250 248 246 245 246 247 246 243 240 235 227 221 222 221 216 219 217 216 211 218 207 192 193 182 188 189 189 188 189 188 189 199 202 193 189 174 184 189 200 174 179 186 197 206 198 196 193 194 208 215 214 208 205
299 298 296 296 292 288 281 279 278 276 275 274 276 278 278 276 276 274 269 269 266 265 262 260 259 258 257 256 258 251 247 244 245 246 247 246 243 244 246 245 242 240 238 234 228 225 219 224 224 223 217 216 209 203 196 186 173 185 186 195 199 199 198 202 205 184 156 179 174 187 188 187 176 184 194 198 186 186 195 207 212 214 210 207 208
289 290 292 292 292 292 291 288 286 283 277 272 275 275 276 276 274 270 265 265 263 260 261 259 260 259 253 253 254 255 250 245 239 241 241 241 242 241 240 239 241 243 241 238 236 232 225 224 224 230 228 215 213 201 189 173 180 190 190 198 195 196 200 210 207 196 174 171 180 170 181 189 177 173 195 186 170 185 192 202 210 212 212 211 214
287 287 289 290 288 289 290 290 290 288 284 281 280 277 274 272 271 272 266 263 260 259 258 258 256 256 256 252 250 253 253 245 240 237 238 238 237 236 235 235 235 238 240 239 236 234 230 229 231 234 234 222 221 203 176 186 194 194 191 192 191 196 196 107 46 94 144 187 176 159 196 172 170 180 194 174 172 185 189 202 211 214 214 216 215
281 283 282 279 280 281 283 285 287 285 285 286 286 284 282 279 276 271 265 260 259 258 257 256 254 253 255 252 251 251 249 247 242 240 238 238 236 236 236 237 238 237 238 236 238 234 232 231 234 236 236 228 220 208 182 188 193 189 172 83 77 103 130 169 180 164 170 188 183 180 149 171 179 181 180 161 162 180 188 186 211 213 215 216 218
286 283 280 279 278 277 279 280 280 280 282 284 285 284 283 282 281 279 273 269 263 259 256 255 255 253 251 248 247 249 249 247 240 236 237 238 239 238 239 239 239 238 242 237 236 236 236 238 239 239 237 232 225 204 183 187 183 174 162 170 193 180 173 183 189 170 196 174 192 191 157 159 181 168 154 172 171 176 186 190 195 215 214 219 221
289 285 283 280 274 272 273 274 274 277 279 281 282 283 283 281 279 275 271 268 264 262 261 256 252 251 248 247 245 245 246 246 238 235 233 233 236 238 239 239 241 240 242 238 228 230 234 239 241 241 239 234 225 216 198 189 184 173 179 197 191 168 188 194 190 187 169 186 198 170 155 185 152 156 143 123 119 192 189 185 189 205 219 225 222
287 288 285 281 278 274 270 271 274 274 275 277 279 281 281 281 280 275 273 272 272 268 266 264 259 251 250 247 244 243 242 243 240 238 235 229 231 233 236 235 239 241 241 231 215 217 220 226 236 239 242 235 226 220 214 203 192 188 194 197 169 180 193 198 176 138 169 223 198 171 168 169 152 172 145 130 176 258 186 201 197 201 209 210 213